CAPE
862 822 1029 1083 1029 883 645 447 300 169 52 10 0 0 0 0 0 0 0 0 0 15 54 22 100 74 0 0 0 192 511 456 526 290 155 69 82 199 221 231 167 0 2
666 917 978 1082 1017 959 736 483 348 310 165 37 6 0 0 0 0 0 0 0 1 0 0 0 87 79 0 0 13 207 618 637 530 243 31 46 81 157 246 348 290 137 0
367 782 986 1026 989 938 792 601 437 326 265 104 27 7 0 0 0 0 0 0 0 0 0 0 0 83 45 0 7 240 723 560 395 415 111 24 70 109 158 238 190 70 0
143 495 873 916 937 894 801 684 545 403 277 181 134 65 6 0 0 0 0 0 0 0 0 0 0 0 38 0 0 493 699 550 350 393 365 212 85 101 214 225 202 17 0
203 346 765 859 977 910 836 723 565 429 396 290 178 82 61 16 0 0 13 5 0 0 0 0 0 0 0 0 30 598 553 523 477 506 323 373 310 65 114 211 203 2 0
341 345 646 774 810 894 784 664 527 405 405 339 196 120 116 128 67 15 2 2 0 0 0 0 0 0 0 0 290 562 503 572 476 408 163 229 106 233 149 104 124 40 2
227 379 466 511 607 696 665 633 492 403 387 308 222 187 196 174 103 8 4 0 0 26 14 9 1 8 12 67 705 675 649 429 118 25 56 129 174 68 99 103 27 15 20
18 248 441 528 514 476 635 691 486 384 336 340 340 315 301 254 111 85 36 0 7 42 58 44 20 36 205 635 720 633 422 285 21 0 0 0 16 57 76 62 53 23 27
19 88 212 323 420 482 233 488 502 277 304 289 287 327 318 244 169 101 38 44 51 95 183 135 169 176 586 778 407 114 8 0 0 0 0 0 0 0 2 63 85 7 4
21 197 307 426 480 552 443 550 577 313 303 376 300 228 194 227 235 121 51 12 175 310 489 608 556 664 592 283 6 0 0 0 0 0 0 0 0 0 0 0 53 4 2
51 313 484 289 500 528 400 607 653 523 436 443 370 316 232 205 108 101 65 22 131 144 180 457 466 339 237 2 0 0 0 0 0 0 0 0 0 0 0 0 0 0 0
202 387 478 293 301 303 468 650 672 648 534 435 394 133 61 68 80 117 78 95 121 127 203 393 171 92 9 0 0 0 0 0 0 0 0 0 0 0 0 0 0 0 0
261 327 374 324 380 446 613 703 686 665 526 418 210 55 52 55 95 117 163 138 226 313 291 124 78 5 0 0 0 0 0 0 0 0 0 0 0 0 0 0 0 0 0
212 270 308 386 369 354 537 761 734 672 596 350 141 70 65 85 206 167 89 161 212 215 140 79 7 0 0 0 0 0 0 0 0 0 0 0 0 0 0 0 0 0 0
189 253 275 366 374 451 403 618 716 689 607 430 156 42 87 208 183 91 155 257 435 267 17 12 0 0 0 0 0 0 0 0 0 0 0 0 0 0 0 0 0 0 0
240 308 307 384 595 480 507 471 624 692 587 369 106 116 117 142 322 113 246 407 349 276 38 52 0 0 0 0 0 0 0 0 0 0 0 0 0 0 0 0 0 0 0
288 417 384 443 629 550 544 533 604 639 515 219 100 125 221 211 221 125 414 580 504 119 23 1 0 0 0 0 0 0 0 0 0 0 0 0 0 0 0 0 0 0 0
438 530 529 510 622 669 659 680 685 699 421 104 41 115 184 164 50 249 410 579 314 167 47 2 0 0 0 0 0 0 0 0 0 0 0 0 0 0 0 0 0 0 0
481 512 583 605 561 669 743 715 770 676 466 89 22 44 115 135 83 86 446 613 332 68 1 0 0 0 0 0 0 0 0 0 0 0 0 0 0 0 0 0 0 0 0
382 534 508 502 514 485 623 733 790 675 492 108 68 35 39 78 90 239 498 492 145 34 0 0 0 0 0 0 0 0 0 0 0 0 0 0 0 0 0 0 0 0 0
191 412 507 575 621 533 571 691 684 666 454 194 90 67 81 64 83 187 587 457 114 5 0 0 0 0 0 0 0 0 0 0 0 0 0 0 0 0 0 0 0 0 0
205 347 461 587 612 562 634 636 677 639 461 327 198 134 123 128 147 170 431 297 125 30 0 0 0 0 0 0 0 0 0 0 0 0 0 0 0 0 0 0 0 0 0
63 608 605 662 738 708 711 711 682 689 673 814 717 514 232 243 316 311 391 382 118 38 0 0 0 0 0 0 0 0 0 0 0 0 0 0 0 0 0 0 0 0 0
138 579 974 911 885 955 870 816 708 852 958 1010 1052 952 845 706 551 484 561 427 132 44 0 0 0 0 0 0 0 0 0 0 0 0 0 0 0 0 0 0 0 0 0
420 526 1048 1046 1036 1080 1067 970 910 1045 1126 1195 1208 1124 958 778 778 728 559 509 236 100 28 0 0 0 0 0 0 0 0 0 0 0 0 0 0 0 0 0 0 0 0
275 476 689 852 924 1302 1206 1302 1380 1296 1224 1267 1248 1207 1122 898 956 845 644 141 172 59 0 0 0 0 0 0 0 0 0 0 0 0 0 0 0 0 0 0 0 0 0
CIN
-146 -159 -142 -143 -160 -164 -189 -213 -220 -209 -246 -277 -0 -0 -0 -0 -0 -0 -0 -0 -0 -139 -60 -13 -58 -85 -0 -0 -0 -87 -62 -60 -64 -48 -84 -140 -158 -121 -113 -114 -147 -1 -126
-124 -153 -161 -148 -154 -185 -174 -190 -207 -169 -156 -156 -143 -0 -0 -0 -0 -0 -0 -0 -159 -0 -0 -0 -50 -65 -0 -0 -37 -73 -43 -51 -56 -44 -103 -109 -111 -85 -56 -46 -80 -204 -0
-128 -147 -147 -162 -169 -192 -181 -168 -182 -170 -127 -98 -115 -58 -0 -0 -0 -0 -0 -0 -0 -0 -0 -0 -0 -58 -74 -0 -82 -65 -23 -38 -48 -48 -64 -190 -163 -110 -77 -64 -131 -279 -0
-133 -125 -168 -164 -171 -186 -190 -151 -147 -154 -125 -80 -60 -67 -30 -0 -0 -0 -0 -0 -0 -0 -0 -0 -0 -0 -86 -0 -0 -39 -24 -37 -42 -47 -52 -76 -184 -155 -71 -75 -117 -348 -0
-138 -165 -199 -161 -177 -190 -194 -167 -136 -132 -113 -93 -69 -93 -79 -82 -0 -0 -130 -135 -0 -0 -0 -0 -0 -0 -0 -0 -51 -26 -26 -33 -36 -30 -48 -43 -62 -285 -193 -84 -93 -63 -0
-194 -217 -163 -177 -178 -198 -182 -183 -153 -135 -112 -93 -94 -87 -89 -59 -60 -106 -78 -69 -0 -0 -0 -0 -0 -0 -0 -0 -40 -27 -29 -23 -30 -37 -99 -53 -193 -108 -174 -206 -173 -289 -38
-239 -237 -201 -188 -194 -227 -188 -180 -174 -167 -145 -103 -103 -83 -74 -71 -59 -77 -73 -0 -0 -49 -37 -50 -75 -78 -121 -77 -17 -15 -13 -27 -116 -275 -232 -184 -164 -333 -280 -264 -350 -24 -21
-355 -295 -219 -220 -223 -230 -194 -171 -191 -201 -179 -123 -84 -55 -48 -60 -57 -45 -63 -0 -47 -51 -57 -78 -103 -107 -48 -27 -15 -20 -23 -45 -287 -0 -0 -55 -327 -376 -340 -356 -324 -308 -4
-352 -338 -264 -279 -278 -248 -265 -222 -201 -216 -188 -137 -91 -56 -41 -53 -49 -38 -55 -49 -46 -55 -39 -52 -46 -58 -37 -22 -44 -94 -198 -0 -0 -0 -0 -0 -0 -0 -106 -372 -345 -18 -21
-251 -320 -272 -302 -276 -243 -238 -233 -204 -183 -157 -103 -96 -87 -74 -51 -42 -34 -45 -90 -29 -33 -25 -19 -23 -26 -36 -69 -119 -0 -0 -0 -0 -0 -0 -0 -0 -0 -0 -0 -401 -37 -32
-347 -336 -317 -361 -277 -251 -247 -212 -161 -139 -127 -82 -73 -57 -62 -49 -54 -51 -49 -67 -31 -39 -58 -25 -39 -54 -69 -41 -0 -0 -0 -0 -0 -0 -0 -0 -0 -0 -0 -0 -0 -0 -0
-323 -364 -329 -338 -285 -276 -238 -185 -142 -110 -91 -76 -43 -78 -99 -73 -71 -60 -61 -50 -39 -60 -40 -53 -80 -84 -139 -16 -0 -0 -0 -0 -0 -0 -0 -0 -0 -0 -0 -0 -0 -0 -0
-432 -389 -375 -277 -285 -254 -217 -167 -131 -91 -91 -71 -70 -83 -55 -72 -74 -58 -42 -46 -37 -43 -67 -75 -88 -112 -0 -0 -0 -0 -0 -0 -0 -0 -0 -0 -0 -0 -0 -0 -0 -0 -0
-359 -316 -339 -326 -246 -236 -193 -159 -128 -105 -98 -89 -63 -61 -78 -74 -52 -49 -64 -51 -52 -48 -63 -97 -120 -0 -0 -0 -0 -0 -0 -0 -0 -0 -0 -0 -0 -0 -0 -0 -0 -0 -0
-342 -327 -331 -328 -217 -254 -190 -185 -128 -122 -132 -107 -99 -108 -99 -69 -63 -83 -65 -50 -52 -62 -87 -131 -0 -0 -0 -0 -0 -0 -0 -0 -0 -0 -0 -0 -0 -0 -0 -0 -0 -0 -0
-277 -329 -301 -292 -207 -252 -187 -211 -149 -140 -156 -149 -146 -142 -135 -119 -60 -96 -76 -57 -51 -52 -131 -230 -5 -0 -0 -0 -0 -0 -0 -0 -0 -0 -0 -0 -0 -0 -0 -0 -0 -0 -0
-308 -341 -258 -220 -202 -215 -204 -210 -183 -181 -202 -164 -182 -164 -141 -132 -112 -116 -67 -45 -58 -113 -224 -274 -0 -0 -0 -0 -0 -0 -0 -0 -0 -0 -0 -0 -0 -0 -0 -0 -0 -0 -0
-305 -319 -234 -208 -185 -217 -205 -183 -184 -194 -234 -215 -224 -196 -163 -153 -213 -128 -96 -74 -109 -140 -214 -119 -0 -0 -0 -0 -0 -0 -0 -0 -0 -0 -0 -0 -0 -0 -0 -0 -0 -0 -0
-266 -278 -208 -192 -196 -210 -221 -217 -172 -217 -196 -277 -360 -302 -217 -199 -226 -224 -98 -76 -102 -144 -58 -0 -0 -0 -0 -0 -0 -0 -0 -0 -0 -0 -0 -0 -0 -0 -0 -0 -0 -0 -0
-277 -235 -236 -252 -233 -253 -261 -233 -195 -216 -216 -318 -343 -459 -406 -327 -293 -175 -120 -86 -123 -203 -0 -0 -0 -0 -0 -0 -0 -0 -0 -0 -0 -0 -0 -0 -0 -0 -0 -0 -0 -0 -0
-241 -256 -223 -182 -175 -239 -259 -219 -222 -214 -244 -329 -411 -461 -428 -372 -318 -219 -117 -106 -169 -391 -0 -0 -0 -0 -0 -0 -0 -0 -0 -0 -0 -0 -0 -0 -0 -0 -0 -0 -0 -0 -0
-269 -222 -223 -202 -202 -274 -234 -220 -202 -230 -266 -304 -316 -348 -369 -353 -293 -256 -146 -151 -250 -380 -0 -0 -0 -0 -0 -0 -0 -0 -0 -0 -0 -0 -0 -0 -0 -0 -0 -0 -0 -0 -0
-314 -283 -206 -233 -261 -275 -241 -171 -199 -303 -280 -226 -213 -267 -285 -288 -253 -224 -179 -167 -321 -437 -0 -0 -0 -0 -0 -0 -0 -0 -0 -0 -0 -0 -0 -0 -0 -0 -0 -0 -0 -0 -0
-360 -333 -271 -248 -240 -294 -253 -170 -282 -309 -277 -234 -199 -200 -223 -227 -213 -208 -168 -172 -349 -484 -108 -0 -0 -0 -0 -0 -0 -0 -0 -0 -0 -0 -0 -0 -0 -0 -0 -0 -0 -0 -0
-434 -396 -335 -327 -299 -293 -233 -309 -326 -288 -254 -243 -217 -200 -206 -218 -199 -186 -204 -205 -349 -458 -552 -0 -0 -0 -0 -0 -0 -0 -0 -0 -0 -0 -0 -0 -0 -0 -0 -0 -0 -0 -0
-554 -474 -459 -367 -344 -317 -309 -341 -355 -299 -237 -228 -240 -242 -221 -233 -200 -195 -195 -456 -415 -550 -0 -0 -0 -0 -0 -0 -0 -0 -0 -0 -0 -0 -0 -0 -0 -0 -0 -0 -0 -0 -0
Wind_Speed
15 6 12 11 10 9 12 10 7 8 5 2 3 7 12 25 26 24 24 24 21 21 19 17 17 18 19 20 21 20 16 11 8 13 11 12 13 11 8 22 25 26 27
7 6 8 8 14 10 10 11 9 6 4 2 5 9 10 22 30 28 28 30 26 23 21 20 20 20 21 21 21 22 12 10 9 11 13 13 10 10 11 21 24 25 25
11 7 9 12 13 12 11 11 9 5 2 3 6 13 15 25 30 31 30 31 29 28 24 23 22 22 21 22 22 17 5 9 11 13 13 15 14 14 9 8 22 24 24
12 14 13 12 19 15 10 8 7 5 5 1 2 6 15 23 29 30 29 30 28 28 25 26 24 24 22 22 21 18 13 7 15 13 13 14 17 15 16 13 9 22 23
15 17 13 16 20 9 8 7 4 5 6 7 2 3 11 18 20 28 30 30 31 31 30 30 27 26 25 23 21 19 16 17 14 13 14 15 16 16 15 16 16 19 21
13 8 11 12 12 4 3 8 9 7 8 8 9 6 7 8 29 28 29 28 24 20 31 31 29 28 26 24 22 20 17 17 14 13 15 15 15 15 15 15 15 16 15
13 11 16 13 6 3 4 9 11 7 7 8 6 7 5 16 29 30 28 23 21 20 25 28 28 26 25 23 21 20 18 17 14 15 16 16 16 14 13 14 15 14 15
14 15 19 20 17 10 9 10 11 5 3 3 7 5 6 19 25 28 24 24 24 23 23 25 26 25 23 23 20 20 18 18 16 16 16 16 16 14 13 13 14 15 14
16 18 21 19 14 10 12 14 10 4 0 1 1 4 13 21 28 25 23 22 23 24 25 25 25 24 23 21 12 19 17 18 18 17 16 14 14 14 14 12 13 13 12
14 15 20 18 16 15 9 10 8 4 1 2 1 7 14 21 29 25 30 28 24 22 21 23 22 22 19 10 13 16 16 14 15 15 13 13 14 14 15 14 13 11 11
14 15 16 12 9 11 6 9 8 5 1 4 1 4 17 22 27 28 26 29 24 21 24 24 22 20 18 9 13 15 14 13 13 13 13 14 15 15 14 13 12 12 12
13 14 16 10 11 9 6 12 10 9 6 5 4 6 16 19 26 27 22 17 21 21 20 13 17 15 13 14 15 13 13 11 11 11 13 14 15 15 14 13 14 15 15
9 10 13 16 13 10 12 15 13 11 7 5 2 1 5 13 12 13 9 9 12 12 8 7 12 15 19 17 17 12 11 10 10 12 14 15 15 16 17 17 18 17 16
11 8 10 10 11 13 15 17 15 11 10 4 1 1 4 4 5 3 3 5 8 4 6 8 9 21 20 19 15 10 9 9 10 13 19 18 17 17 17 17 17 17 17
10 11 10 12 17 14 20 17 15 14 12 11 15 23 21 12 4 6 4 7 9 8 10 3 22 18 19 21 14 9 7 8 9 11 14 18 17 17 17 16 16 16 15
12 13 13 12 17 21 22 20 17 16 16 19 20 11 23 28 19 8 4 7 18 22 8 27 20 21 23 24 13 6 7 7 11 14 15 18 18 18 19 18 16 15 13
13 13 14 16 20 23 24 24 19 19 24 26 29 31 29 28 25 28 29 28 28 29 29 23 23 25 25 29 6 10 7 9 15 19 19 18 19 20 20 20 20 19 17
13 11 12 15 24 25 22 21 20 31 32 32 31 30 28 31 33 32 30 30 29 28 27 26 27 29 28 27 21 8 8 15 20 20 18 19 19 19 20 21 21 21 21
7 12 15 19 20 27 24 24 26 32 34 33 31 33 33 33 31 31 31 31 30 29 28 28 30 31 29 23 14 7 12 20 20 20 18 18 17 17 18 20 20 21 21
8 12 11 11 19 24 25 25 26 30 31 34 31 33 30 31 31 33 31 31 31 30 29 30 30 30 28 25 15 11 15 20 20 19 18 17 15 15 15 16 17 17 17
9 10 12 17 24 20 24 26 22 26 32 36 31 27 32 29 27 26 29 32 32 31 31 31 31 31 27 21 21 19 20 17 16 16 16 16 14 14 14 14 14 14 15
3 5 8 12 15 20 22 28 28 30 35 28 22 25 28 28 26 25 31 34 33 33 31 29 29 29 29 15 19 21 19 15 15 16 15 14 13 13 13 13 12 13 14
11 7 5 12 13 20 25 28 31 20 16 16 17 23 26 26 26 25 27 31 30 27 24 22 24 25 23 19 11 22 20 16 14 12 14 13 12 11 11 11 11 12 12
13 17 6 5 9 15 21 29 14 12 17 19 22 15 17 21 18 17 19 19 19 18 13 17 20 21 20 19 17 13 19 15 13 10 10 10 9 9 8 8 9 9 10
15 13 13 19 17 12 14 17 11 12 13 14 13 11 14 16 14 15 16 18 17 16 13 16 13 16 22 23 18 18 15 13 11 5 3 5 5 7 5 4 5 6 7
10 11 12 14 19 22 19 12 9 11 10 9 8 8 9 9 10 11 9 8 8 16 15 7 10 13 15 7 17 20 18 15 9 3 4 7 8 8 6 5 3 3 3
Wind_Direction
166 142 149 143 131 132 144 146 139 140 143 177 230 270 274 254 251 257 258 262 277 273 287 291 296 304 313 306 307 298 285 105 247 129 176 318 329 324 303 34 57 42 55
172 169 160 160 158 141 146 150 150 143 146 256 265 279 273 262 244 249 257 246 255 263 274 278 283 293 297 300 303 313 290 136 239 243 188 182 197 303 314 31 53 48 55
186 184 172 164 160 155 151 153 152 142 128 311 281 279 278 258 249 249 248 238 254 255 269 270 273 281 296 297 296 265 327 193 210 243 198 185 166 164 222 283 47 45 44
188 178 173 168 169 166 147 143 142 138 142 135 244 271 271 260 250 247 245 239 254 260 269 262 263 266 286 280 269 254 200 170 246 203 195 138 144 146 129 165 181 39 43
183 179 177 175 176 157 152 144 128 127 135 142 177 241 274 266 266 252 250 255 257 260 255 251 254 261 266 268 256 253 211 248 228 205 179 64 122 115 117 124 110 67 63
177 197 182 175 171 178 190 149 145 136 135 145 150 160 166 260 244 253 251 256 272 274 238 237 251 249 252 249 253 262 226 245 212 170 186 166 141 115 102 101 110 96 100
167 175 174 174 192 192 165 154 153 140 130 138 147 161 183 268 245 240 250 264 272 268 252 238 243 243 246 242 249 252 231 231 181 193 196 182 153 105 88 88 101 102 108
173 174 173 170 164 159 154 159 157 140 121 131 160 184 256 266 255 249 258 258 256 262 257 250 241 242 248 248 266 243 224 224 206 234 218 198 135 91 80 93 107 86 89
171 173 175 173 170 156 159 161 153 143 44 114 321 257 267 260 249 253 257 261 256 250 252 241 245 248 249 260 308 246 261 245 247 250 211 161 90 65 89 106 116 97 86
173 171 171 168 166 165 154 151 154 149 125 343 115 292 266 257 244 252 244 245 253 258 252 245 252 255 266 315 288 266 270 294 283 278 2 30 47 50 65 80 116 112 86
146 153 160 159 157 151 144 145 150 142 119 148 106 294 258 249 241 239 247 239 253 259 245 249 255 261 265 304 280 275 287 296 308 319 23 28 45 57 74 99 94 94 87
137 144 147 141 150 146 140 149 149 148 144 137 133 143 256 250 239 237 248 261 255 258 256 276 261 262 275 276 274 280 282 317 338 3 29 48 64 51 91 87 77 85 81
139 133 146 157 150 146 146 151 152 153 136 109 81 174 243 253 248 251 263 275 273 269 269 272 269 267 250 256 248 275 298 320 351 23 65 84 81 78 77 76 73 75 75
170 161 148 152 141 150 151 152 148 138 121 72 313 181 210 183 219 206 269 288 279 271 274 278 283 237 243 239 247 282 315 337 8 55 134 117 101 87 77 84 83 74 73
178 179 154 150 159 146 156 147 144 136 118 111 127 147 137 133 229 127 107 283 273 262 273 324 228 248 238 225 249 285 341 13 5 17 64 104 92 87 85 89 92 86 77
167 165 157 152 153 157 158 151 144 135 127 132 133 123 139 152 138 122 96 282 248 231 266 204 237 230 219 209 249 317 25 14 50 62 58 69 66 68 75 74 79 83 79
168 159 162 153 153 157 158 157 148 141 149 148 156 158 158 157 150 161 183 176 194 200 202 227 224 212 210 183 100 79 30 58 85 97 87 72 77 69 66 56 58 57 59
166 163 161 153 157 157 152 150 148 170 167 161 161 159 156 168 178 185 188 197 202 209 217 217 211 199 200 159 137 76 64 101 115 114 99 104 90 86 73 66 60 59 54
163 158 156 154 149 160 155 153 156 171 181 175 167 174 172 178 173 184 184 201 205 211 215 209 194 186 187 152 126 86 100 127 132 131 121 116 100 93 81 71 62 58 47
152 147 156 158 152 156 157 159 160 169 174 180 172 174 169 172 177 197 186 205 211 211 209 199 188 182 174 163 138 121 123 135 141 146 138 128 109 106 95 72 67 60 59
137 143 150 157 163 158 161 168 162 171 177 184 175 166 176 173 172 171 179 202 210 209 200 194 196 192 177 159 155 148 144 136 131 129 128 132 117 97 99 81 69 65 71
254 152 162 163 160 162 162 173 176 178 182 171 166 168 172 173 171 169 185 204 200 203 194 183 184 190 189 155 155 157 151 137 135 137 132 124 110 101 91 85 81 77 77
273 262 201 164 164 165 169 174 183 163 166 167 167 168 171 171 171 169 172 187 181 176 170 168 174 174 168 158 149 160 157 148 142 131 139 128 116 104 95 89 81 83 80
268 259 252 181 173 167 169 180 168 170 163 167 169 168 165 167 165 164 164 164 165 166 162 165 169 168 165 163 160 157 161 157 152 139 130 130 127 117 100 86 80 88 88
268 270 264 256 257 243 172 168 173 173 171 166 168 179 174 171 171 174 172 173 175 174 171 171 168 167 174 175 169 167 165 163 159 135 103 133 137 148 126 107 103 107 93
278 263 274 273 263 253 254 245 200 185 186 208 220 218 215 213 202 191 210 230 225 184 184 202 181 176 178 184 174 179 179 177 171 194 184 183 186 187 182 176 161 135 135